This is the latest recevied weather packets stored in our database for station/object WX5II-11. If no packets are shown the sender has not sent any weather packets the latest 10 day(s).
| Time | Temp. | Humidity | Pressure | Rain* | Wind** | Luminosity | Snow |
|---|---|---|---|---|---|---|---|
| 1788486877 | 29.44° C | 65% | 1002.7 hPa | 0 mm | - | - | - |
| 1788484475 | 30.56° C | 61% | 1002.7 hPa | 0 mm | - | - | - |
| 1788483272 | 31.11° C | 58% | 1002.3 hPa | 0 mm | - | - | - |
| 1788482074 | 32.22° C | 53% | 1002 hPa | 0 mm | - | - | - |
| 1788481473 | 32.22° C | 51% | 1002 hPa | 0 mm | - | - | - |
| 1788451445 | 34.44° C | 53% | 1004.4 hPa | 0 mm | - | - | - |
| 1788441834 | 28.89° C | 75% | 1004.4 hPa | 0 mm | - | - | - |
| 1788441234 | 27.78° C | 77% | 1004.4 hPa | 0 mm | - | - | - |
| 1788440633 | 27.78° C | 79% | 1004.4 hPa | 0 mm | - | - | - |
| 1788440032 | 26.67° C | 80% | 1004.4 hPa | 0 mm | - | - | - |
| 1788439432 | 26.11° C | 81% | 1004.4 hPa | 0 mm | - | - | - |
| 1788437630 | 25.56° C | 81% | 1004 hPa | 0 mm | - | - | - |
| 1788435830 | 26.11° C | 81% | 1004 hPa | 0 mm | - | - | - |
| 1788434627 | 26.11° C | 80% | 1004 hPa | 0 mm | - | - | - |
| 1788434026 | 26.11° C | 80% | 1004 hPa | 0 mm | - | - | - |
| 1788432226 | 26.67° C | 80% | 1004 hPa | 0 mm | - | - | - |
| 1788431027 | 26.67° C | 79% | 1004 hPa | 0 mm | - | - | - |
| 1788430425 | 26.67° C | 79% | 1004 hPa | 0 mm | - | - | - |
| 1788429822 | 26.67° C | 79% | 1004 hPa | 0 mm | - | - | - |
| 1788425019 | 27.22° C | 77% | 1004 hPa | 0 mm | - | - | - |
| 1788423817 | 27.78° C | 76% | 1004 hPa | 0 mm | - | - | - |
| 1788422616 | 27.78° C | 76% | 1004 hPa | 0 mm | - | - | - |
| 1788421416 | 27.78° C | 76% | 1004 hPa | 0 mm | - | - | - |
| 1788420214 | 27.78° C | 75% | 1004 hPa | 0 mm | - | - | - |
| 1788418423 | 27.78° C | 75% | 1004.4 hPa | 0 mm | - | - | - |
* Rain latest hour (hover to see other rain measurements)
** Current wind speed in m/s (hover to see current wind gust speed)